[[{"header":{"parameterUnit":"m.s-1","parameterCategory":1,"la1":30.2991,"la2":30.254,"lo1":-89.0895,"lo2":-89.0444,"dy":0.0017,"dx":0.0017,"nx":28,"ny":28,"refTime":"2025-03-27T09:00:00:Z","depth":0,"parameterNumber":2,"parameterNumberName":"U-component_of_WINDS"},"data":[0,0,0,0,0,0,0,0,0,0,0,0,0,0,0,0,0,0,0,0,0,0,0,0,0,0,0,0,0,0,0,0,0,0,0,0,0,0,0,0,0,0,0,0,0,0,0,0,0,0,0,0,0,0,0,0,0,0,-6.1377,-6.1378,0,-6.151,-6.1512,-6.1513,-6.1524,-6.1523,-6.1521,-6.152,-6.1654,-6.1659,-6.1664,0,0,0,0,0,0,0,0,0,0,0,0,0,-6.113,-6.1134,-6.1376,-6.1378,-6.138,-6.151,-6.1512,-6.1514,-6.1524,-6.1523,-6.1521,-6.1519,-6.1652,-6.1658,-6.1664,0,0,0,0,0,0,0,0,0,0,0,0,0,-6.1247,-6.1136,-6.1376,-6.1401,-6.1405,-6.151,-6.1512,-6.1514,-6.1525,-6.1523,-6.152,-6.1518,-6.1651,-6.1658,-6.1665,-6.1754,0,0,-6.1687,-6.1691,0,0,0,0,0,0,0,0,-6.1241,-6.1256,-6.1396,-6.1399,-6.1404,-6.1498,-6.1474,-6.1594,-6.1525,-6.1479,-6.152,-6.1517,-6.1604,-6.1615,-6.1645,-6.176,-6.1766,-6.1688,-6.1693,-6.1696,-6.1698,0,0,0,0,0,0,0,-6.1233,-6.1251,-6.1429,-6.1398,-6.1403,-6.1405,-6.1419,-6.1497,-6.1552,-6.1483,-6.1484,-6.15,-6.1606,-6.1637,-6.1648,-6.1768,-6.1688,-6.1694,-6.1699,-6.1702,-6.1963,-6.1965,0,0,0,0,0,0,-6.122,-6.1244,-6.1425,-6.1433,-6.1315,-6.1411,-6.1427,-6.147,-6.1551,-6.1561,-6.1502,-6.15,-6.1626,-6.1639,-6.1653,-6.1761,-6.1696,-6.1703,-6.1707,-6.1961,-6.1964,-6.1966,0,0,0,0,0,0,-6.1215,-6.1236,-6.142,-6.1339,-6.1363,-6.1418,-6.1466,-6.1474,-6.1506,-6.1565,-6.1575,-6.1524,-6.1625,-6.1642,-6.1729,-6.1766,-6.1706,-6.1713,-6.1958,-6.1962,-6.1965,-6.1979,0,0,0,0,0,0,-6.1208,-6.1234,-6.1268,-6.134,-6.1367,-6.1494,-6.1468,-6.1478,-6.1519,-6.1518,-6.1589,-6.1598,-6.1624,-6.1718,-6.1736,-6.1775,-6.1718,-6.1954,-6.1959,-6.1964,-6.1975,-6.1983,-6.1989,0,0,0,0,0,-6.1199,-6.1266,-6.127,-6.1292,-6.1411,-6.1496,-6.1511,-6.154,-6.1522,-6.1556,-6.1595,-6.1596,-6.176,-6.1726,-6.1747,-6.1789,-6.1952,-6.1958,-6.1963,-6.1972,-6.1981,-6.1989,0,0,0,0,0,0,-6.1196,-6.1276,-6.1281,-6.1374,-6.1428,-6.1497,-6.1542,-6.1549,-6.1609,-6.1605,-6.1639,-6.1655,-6.174,-6.1774,-6.1735,-6.1879,-6.1854,-6.1864,-6.1853,-6.1863,-6.1869,-6.1858,-6.1724,0,0,0,0,0,-6.1206,-6.1269,-6.1336,-6.1411,-6.1438,-6.1486,-6.1524,-6.1542,-6.1599,-6.1622,-6.1667,-6.1721,-6.1785,-6.1826,-6.1889,-6.1982,-6.1997,-6.2021,-6.2028,-6.2033,-6.204,-6.2092,-6.2103,-6.1985,-6.1985,-6.1985,0,0,-6.1228,-6.1279,-6.1317,-6.1412,-6.1456,-6.152,-6.1505,-6.1572,-6.162,-6.1632,-6.1716,-6.1751,-6.1815,-6.1905,-6.1947,-6.1936,-6.2077,-6.204,-6.2044,-6.2049,-6.2099,-6.211,-6.212,-6.1989,-6.1988,-6.1987,0,0,-6.1299,-6.1345,-6.1413,-6.1458,-6.1526,-6.1558,-6.1574,-6.1644,-6.1668,-6.1753,-6.1764,-6.1821,-6.193,-6.1975,-6.2012,-6.2104,-6.2107,-6.2124,-6.2158,-6.2208,-6.2218,-6.2226,-6.2257,-6.2268,-6.2132,-6.2132,-6.2132,0,-6.1316,-6.1413,-6.1446,-6.1515,-6.1556,-6.1572,-6.1641,-6.1683,-6.1767,-6.1795,-6.1783,-6.1921,-6.1965,-6.2066,-6.2088,-6.2119,-6.2138,-6.2114,-6.2214,-6.2223,-6.2231,-6.2261,-6.2273,-6.2133,-6.2133,-6.2133,-6.2133,0,-6.1431,-6.1499,-6.1545,-6.1627,-6.1675,-6.1743,-6.1786,-6.183,-6.1845,-6.1878,-6.1965,-6.202,-6.2093,-6.2119,-6.2134,-6.2223,-6.2213,-6.2207,-6.2181,-6.2243,-6.2272,-6.2284,-6.2135,-6.2135,-6.2134,-6.2134,0,0,-6.15,-6.1602,-6.1619,-6.1656,-6.1734,-6.1786,-6.1856,-6.1929,-6.1965,-6.2025,-6.2083,-6.2177,-6.2172,-6.2214,-6.2235,-6.2279,-6.2347,-6.2267,-6.2269,-6.2278,-6.2447,-6.2449,-6.2462,-6.2352,-6.2354,-6.2356,-6.2441,0,-6.1578,-6.1702,-6.1735,-6.184,-6.1903,-6.1921,-6.1981,-6.2035,-6.2069,-6.2127,-6.2164,-6.2229,-6.2219,-6.2244,-6.2289,-6.2329,-6.2381,-6.2324,-6.2404,-6.2407,-6.2384,-6.2477,-6.2479,-6.2557,-6.2452,-6.2454,-6.2456,0,-6.1685,-6.1747,-6.1858,-6.1929,-6.1957,-6.201,-6.208,-6.2136,-6.2198,-6.222,-6.2269,-6.2286,-6.2359,-6.2333,-6.2433,-6.2394,-6.243,-6.2455,-6.2458,-6.2464,-6.2432,-6.2483,-6.2582,-6.2593,-6.2474,-6.2473,-6.2471,0,-6.1722,-6.1834,-6.1915,-6.1947,-6.2032,-6.2069,-6.2106,-6.2167,-6.2209,-6.2271,-6.2298,-6.2368,-6.2405,-6.2458,-6.2494,-6.2472,-6.2592,-6.2568,-6.261,-6.2609,-6.2631,-6.2629,-6.2735,-6.2659,-6.2659,-6.2659,-6.2659,0,-6.1804,-6.1871,-6.1932,-6.1982,-6.2058,-6.2096,-6.217,-6.2208,-6.2262,-6.2319,-6.234,-6.2393,-6.2438,-6.2498,-6.2526,-6.2605,-6.2622,-6.2641,-6.2647,-6.2637,-6.2634,-6.2658,-6.2653,-6.2662,-6.2661,-6.2661,-6.266,0,-6.1856,-6.19,-6.1989,-6.2064,-6.2084,-6.2137,-6.22,-6.2249,-6.2285,-6.2357,-6.2376,-6.2431,-6.2503,-6.2545,-6.2634,-6.2654,-6.274,-6.2745,-6.2719,-6.2721,-6.2759,-6.2754,-6.2882,-6.29,-6.2815,-6.2816,-6.2816,0,-6.1904,-6.1956,-6.2036,-6.2076,-6.2114,-6.2179,-6.2222,-6.2263,-6.2308,-6.2384,-6.2424,-6.2497,-6.2556,-6.2669,-6.2717,-6.2786,-6.2792,-6.2832,-6.2802,-6.2791,-6.279,-6.2785,-6.279,-6.2836,-6.2837,-6.2837,-6.2838,0,-6.1983,-6.2003,-6.2066,-6.2137,-6.2189,-6.2246,-6.2303,-6.2335,-6.2386,-6.2435,-6.2508,-6.2555,-6.2648,-6.2719,-6.2793,-6.2831,-6.2842,-6.2848,-6.2861,-6.2849,-6.2831,-6.2839,-6.2729,-6.2843,-6.2843,-6.2842,-6.2842,-6.2842,-6.2033,-6.208,-6.2145,-6.2214,-6.2262,-6.2315,-6.2365,-6.2408,-6.247,-6.2549,-6.257,-6.2647,-6.2709,-6.281,-6.285,-6.291,-6.2904,-6.2923,-6.2927,-6.293,-6.293,-6.2824,-6.2924,-6.2924,-6.2924,-6.2924,-6.2924,0,-6.2112,-6.2155,-6.2219,-6.2299,-6.2353,-6.2362,-6.2427,-6.2471,-6.2539,-6.2597,-6.2656,-6.2741,-6.2812,-6.2867,-6.2939,-6.2977,-6.2984,-6.2994,-6.299,-6.2998,-6.2933,-6.2914,-6.2987,-6.2987,-6.2987,-6.2987,-6.2987,-6.2987,-6.2159,-6.2239,-6.2267,-6.2372,-6.2414,-6.249,-6.2526,-6.2576,-6.2622,-6.2716,-6.2775,-6.2811,-6.2868,-6.2945,-6.301,-6.3025,-6.3049,-6.3058,-6.3073,-6.301,-6.3003,-6.2996,-6.2978,-6.3064,-6.3064,-6.3133,-6.3133,-6.3134]},{"header":{"parameterUnit":"m.s-1","parameterCategory":1,"la1":30.2991,"la2":30.254,"lo1":-89.0895,"lo2":-89.0444,"dy":0.0017,"dx":0.0017,"nx":28,"ny":28,"refTime":"2025-03-27T09:00:00:Z","depth":0,"parameterNumber":3,"parameterNumberName":"V-component_of_WINDS"},"data":[0,0,0,0,0,0,0,0,0,0,0,0,0,0,0,0,0,0,0,0,0,0,0,0,0,0,0,0,0,0,0,0,0,0,0,0,0,0,0,0,0,0,0,0,0,0,0,0,0,0,0,0,0,0,0,0,0,0,3.7576,3.7578,0,3.7722,3.7724,3.7726,3.7796,3.7796,3.7796,3.7796,3.7942,3.7946,3.795,0,0,0,0,0,0,0,0,0,0,0,0,0,3.7358,3.7361,3.7576,3.7578,3.758,3.7722,3.7724,3.7726,3.7796,3.7796,3.7796,3.7796,3.7941,3.7945,3.795,0,0,0,0,0,0,0,0,0,0,0,0,0,3.7473,3.7362,3.7576,3.7632,3.7639,3.7722,3.7724,3.7727,3.7796,3.7796,3.7796,3.7796,3.7939,3.7945,3.7951,3.7987,0,0,3.7969,3.7971,0,0,0,0,0,0,0,0,3.7466,3.7481,3.7622,3.7629,3.7636,3.7741,3.77,3.7814,3.7796,3.7736,3.7796,3.7796,3.7875,3.7886,3.7913,3.7994,3.8,3.7969,3.7973,3.7975,3.7977,0,0,0,0,0,0,0,3.7458,3.7475,3.7634,3.7624,3.7633,3.765,3.7666,3.7722,3.7804,3.7742,3.7747,3.7764,3.7879,3.7908,3.7917,3.8003,3.7969,3.7974,3.7978,3.798,3.8124,3.8124,0,0,0,0,0,0,3.7441,3.7468,3.7629,3.7638,3.7549,3.7654,3.7672,3.7707,3.7804,3.7818,3.7764,3.7766,3.7898,3.791,3.7923,3.7974,3.7975,3.7981,3.7984,3.8124,3.8124,3.8124,0,0,0,0,0,0,3.7436,3.7455,3.7623,3.7555,3.7577,3.7658,3.7697,3.771,3.7739,3.782,3.7835,3.7778,3.7898,3.7915,3.7972,3.798,3.7983,3.7989,3.8123,3.8124,3.8124,3.8076,0,0,0,0,0,0,3.743,3.7453,3.7468,3.7554,3.7581,3.767,3.7697,3.7713,3.775,3.7755,3.7838,3.7851,3.7899,3.7963,3.7978,3.7988,3.7993,3.8123,3.8123,3.8124,3.8077,3.8075,3.8073,0,0,0,0,0,3.7422,3.7447,3.7468,3.7487,3.7601,3.767,3.7686,3.7741,3.775,3.7766,3.7818,3.7849,3.7977,3.7968,3.7985,3.7998,3.8123,3.8123,3.8124,3.8078,3.8075,3.8073,0,0,0,0,0,0,3.7357,3.7459,3.7484,3.7538,3.7595,3.7682,3.7704,3.7736,3.7791,3.7793,3.7859,3.7877,3.7929,3.7969,3.7957,3.804,3.8053,3.8057,3.8012,3.801,3.8008,3.7997,3.7998,0,0,0,0,0,3.7349,3.7397,3.7484,3.7523,3.7551,3.7622,3.7654,3.7693,3.7754,3.7779,3.7835,3.7893,3.7947,3.798,3.8034,3.8083,3.8104,3.8101,3.8099,3.8096,3.8099,3.8131,3.8132,3.8127,3.8127,3.8127,0,0,3.7333,3.7395,3.7421,3.7512,3.7561,3.761,3.7642,3.7691,3.7729,3.7786,3.7844,3.7888,3.7957,3.8011,3.8038,3.8046,3.8105,3.8097,3.8095,3.8099,3.8132,3.8132,3.8133,3.8127,3.8127,3.8127,0,0,3.7329,3.738,3.742,3.7469,3.7544,3.7592,3.7601,3.7684,3.7716,3.7776,3.7821,3.7866,3.7956,3.8004,3.804,3.8058,3.8089,3.8073,3.8062,3.8092,3.8092,3.8093,3.8101,3.8103,3.8076,3.8076,3.8076,0,3.7299,3.7375,3.7436,3.7484,3.7524,3.758,3.7621,3.7665,3.7753,3.7779,3.7787,3.7904,3.7954,3.8022,3.8027,3.8053,3.8067,3.8064,3.8088,3.8089,3.8091,3.8099,3.8102,3.8074,3.8074,3.8074,3.8074,0,3.7336,3.7388,3.7411,3.7497,3.7539,3.7583,3.7651,3.7686,3.7721,3.7768,3.783,3.7892,3.7961,3.798,3.8013,3.8053,3.8056,3.8075,3.8089,3.8088,3.8097,3.8101,3.8071,3.8071,3.8072,3.8073,0,0,3.7294,3.7415,3.7422,3.7463,3.7551,3.7593,3.764,3.7709,3.7739,3.7798,3.784,3.7916,3.7936,3.7977,3.8017,3.8043,3.8056,3.806,3.8062,3.8058,3.8106,3.8092,3.8095,3.8077,3.8078,3.8078,3.8101,0,3.7303,3.7392,3.745,3.7516,3.7566,3.7621,3.7663,3.7721,3.7767,3.7816,3.7866,3.792,3.794,3.7966,3.7995,3.8048,3.8067,3.8047,3.8117,3.8119,3.8099,3.8099,3.8084,3.8102,3.8104,3.8105,3.8106,0,3.7326,3.7386,3.7458,3.7543,3.7566,3.7603,3.7672,3.7718,3.7786,3.7817,3.7865,3.7906,3.7959,3.7969,3.8043,3.8029,3.8061,3.8092,3.8094,3.8103,3.8113,3.811,3.8109,3.8112,3.8111,3.8111,3.8111,0,3.729,3.7389,3.7446,3.7478,3.7579,3.7604,3.7646,3.7714,3.7753,3.7813,3.784,3.7904,3.794,3.7989,3.8047,3.8048,3.8116,3.813,3.8145,3.8143,3.8157,3.8155,3.8162,3.8175,3.8175,3.8175,3.8175,0,3.7295,3.7337,3.7431,3.7466,3.7516,3.7581,3.7628,3.7675,3.7736,3.7781,3.7832,3.7873,3.7947,3.7997,3.8042,3.8099,3.8114,3.8141,3.8153,3.8137,3.8134,3.816,3.816,3.8176,3.8176,3.8176,3.8175,0,3.7263,3.7328,3.7394,3.7485,3.7508,3.7541,3.7619,3.7655,3.7704,3.7761,3.7778,3.7855,3.7917,3.798,3.8063,3.8094,3.8149,3.8164,3.8127,3.8133,3.8145,3.8144,3.8169,3.8177,3.8183,3.8183,3.8183,0,3.7263,3.7297,3.7393,3.7428,3.747,3.7525,3.7566,3.7632,3.7672,3.7754,3.778,3.7847,3.7904,3.8001,3.8064,3.8128,3.8146,3.8151,3.8156,3.814,3.8148,3.8146,3.8151,3.8149,3.8148,3.8148,3.8148,0,3.7256,3.7287,3.7344,3.7414,3.7462,3.7519,3.7578,3.7603,3.7681,3.7724,3.779,3.7834,3.7921,3.7986,3.8059,3.8103,3.8139,3.8146,3.8153,3.8138,3.8115,3.813,3.8122,3.8145,3.8145,3.8145,3.8145,3.8145,3.7241,3.7275,3.7349,3.7412,3.7464,3.7519,3.7558,3.7614,3.767,3.7747,3.7782,3.7849,3.7918,3.802,3.8063,3.8116,3.8125,3.8135,3.8138,3.8139,3.8137,3.8106,3.8129,3.8129,3.8129,3.8129,3.8129,0,3.7238,3.7289,3.7346,3.7429,3.7479,3.751,3.7578,3.7618,3.7676,3.7738,3.7794,3.787,3.7935,3.8004,3.8073,3.8102,3.8121,3.8118,3.8117,3.8127,3.8123,3.8111,3.8103,3.8103,3.8103,3.8103,3.8103,3.8103,3.7243,3.7303,3.7343,3.7431,3.7481,3.7548,3.7584,3.7635,3.7686,3.777,3.7825,3.787,3.7936,3.801,3.8072,3.809,3.8114,3.8107,3.813,3.8125,3.8127,3.8129,3.8118,3.8111,3.8111,3.8131,3.8131,3.8131]}]]